Mandan, ND

12:47 AM CDT on May 21, 2018 (GMT -0500)
Mandan

Weather History for KY19 - April, 2014

Change the Weather History Date:

Wednesday, April 2, 2014

  Actual Average (KBIS) Record (KBIS)
Temperature  
Mean Temperature 22 °F -  
Max Temperature 30 °F 46 °F 82 °F (1921)
Min Temperature 14 °F 24 °F -10 °F (1975)
Degree Days  
Heating Degree Days 43    
Moisture  
Dew Point 15 °F    
Average Humidity 74    
Maximum Humidity 100    
Minimum Humidity 47    
Precipitation  
Precipitation 0.75 in - - ()
Sea Level Pressure  
Sea Level Pressure 30.05 in    
Wind  
Wind Speed 8 mph (ESE)    
Max Wind Speed 18 mph    
Max Gust Speed 22 mph    
Visibility 8 miles    
Events Snow    
Averages and records for this station are not official NWS values.
T = Trace of Precipitation, MM = Missing Value Source: NWS Daily Summary

Daily Weather History Graph

Daily Weather History Graph

Search for Another Location

Airport or City:

Astronomy

Apr. 02, 2014 Rise Set
Actual Time 7:20 AM CDT 8:14 PM CDT
Civil Twilight 6:50 AM CDT 8:44 PM CDT
Nautical Twilight 6:13 AM CDT 9:21 PM CDT
Astronomical Twilight 5:34 AM CDT 10:00 PM CDT
Moon 8:56 AM CDT (4/2) 11:50 PM CDT (4/2)
Length of Visible Light 13h 54m
Length of Day
12h 53m
Waxing Crescent, 10% of the Moon is Illuminated
Apr 2
Waxing Crescent
Apr 7
First Quarter
Apr 15
Full
Apr 22
Last Quarter
Apr 29
New

Hourly Weather History & Observations

Time (CDT) Temp. Windchill Dew Point Humidity Pressure Visibility Wind Dir Wind Speed Gust Speed Precip Events Conditions
12:15 AM 17.6 °F 12.3 °F 6.8 °F 63% 30.10 in 10.0 mi South 3.5 mph - N/A   Clear
12:35 AM 17.6 °F 10.7 °F 6.8 °F 63% 30.11 in 10.0 mi South 4.6 mph - N/A   Clear
12:55 AM 15.8 °F 8.6 °F 6.8 °F 68% 30.10 in 10.0 mi SSE 4.6 mph - N/A   Clear
1:15 AM 15.8 °F 7.2 °F 6.8 °F 68% 30.10 in 10.0 mi East 5.8 mph - N/A   Clear
1:35 AM 14.0 °F - 6.8 °F 73% 30.10 in 10.0 mi Calm Calm - N/A   Clear
1:55 AM 15.8 °F 10.2 °F 8.6 °F 73% 30.10 in 10.0 mi ENE 3.5 mph - N/A   Mostly Cloudy
2:15 AM 15.8 °F 8.6 °F 8.6 °F 73% 30.10 in 10.0 mi ESE 4.6 mph - N/A   Overcast
2:35 AM 15.8 °F 7.2 °F 8.6 °F 73% 30.10 in 10.0 mi East 5.8 mph - N/A   Overcast
2:55 AM 15.8 °F 6.1 °F 8.6 °F 73% 30.10 in 10.0 mi East 6.9 mph - N/A   Overcast
3:15 AM 15.8 °F 6.1 °F 8.6 °F 73% 30.09 in 10.0 mi East 6.9 mph - N/A   Overcast
3:35 AM 15.8 °F 7.2 °F 8.6 °F 73% 30.09 in 10.0 mi ESE 5.8 mph - N/A   Overcast
3:55 AM 17.6 °F 9.3 °F 8.6 °F 68% 30.09 in 10.0 mi East 5.8 mph - N/A   Overcast
4:15 AM 17.6 °F 9.3 °F 8.6 °F 68% 30.08 in 10.0 mi East 5.8 mph - N/A   Overcast
4:35 AM 17.6 °F 8.2 °F 10.4 °F 73% 30.08 in 10.0 mi East 6.9 mph - N/A   Overcast
4:55 AM 17.6 °F 8.2 °F 10.4 °F 73% 30.07 in 10.0 mi East 6.9 mph - N/A   Overcast
5:15 AM 17.6 °F 9.3 °F 10.4 °F 73% 30.07 in 10.0 mi East 5.8 mph - N/A   Overcast
5:35 AM 17.6 °F 6.4 °F 10.4 °F 73% 30.08 in 10.0 mi ESE 9.2 mph - N/A   Overcast
5:55 AM 17.6 °F 8.2 °F 12.2 °F 79% 30.08 in 10.0 mi ESE 6.9 mph - N/A   Overcast
6:15 AM 17.6 °F 10.7 °F 12.2 °F 79% 30.08 in 10.0 mi ESE 4.6 mph - N/A   Overcast
7:35 AM 19.4 °F 11.5 °F 14.0 °F 80% 30.08 in 10.0 mi SE 5.8 mph - N/A   Overcast
7:55 AM 19.4 °F 10.4 °F 14.0 °F 80% 30.07 in 10.0 mi East 6.9 mph - N/A   Overcast
8:15 AM 19.4 °F 8.6 °F 14.0 °F 80% 30.07 in 10.0 mi East 9.2 mph - N/A   Overcast
8:35 AM 19.4 °F 9.5 °F 14.0 °F 80% 30.07 in 10.0 mi East 8.1 mph - N/A   Overcast
8:55 AM 21.2 °F 10.9 °F 15.8 °F 80% 30.07 in 10.0 mi ESE 9.2 mph - N/A   Overcast
9:15 AM 21.2 °F 10.9 °F 14.0 °F 74% 30.06 in 10.0 mi East 9.2 mph - N/A   Overcast
9:35 AM 23.0 °F 13.9 °F 14.0 °F 68% 30.06 in 10.0 mi ESE 8.1 mph - N/A   Overcast
9:55 AM 23.0 °F 12.4 °F 14.0 °F 68% 30.06 in 10.0 mi ESE 10.4 mph - N/A   Overcast
10:15 AM 23.0 °F 13.1 °F 14.0 °F 68% 30.07 in 10.0 mi SE 9.2 mph - N/A   Overcast
10:35 AM 23.0 °F 13.1 °F 14.0 °F 68% 30.08 in 10.0 mi SE 9.2 mph - N/A   Overcast
10:55 AM 24.8 °F 14.0 °F 12.2 °F 59% 30.07 in 10.0 mi SE 11.5 mph - N/A   Overcast
11:15 AM 24.8 °F 15.3 °F 12.2 °F 59% 30.07 in 10.0 mi SE 9.2 mph - N/A   Overcast
11:35 AM 26.6 °F 16.8 °F 14.0 °F 59% 30.06 in 10.0 mi SE 10.4 mph - N/A   Overcast
11:55 AM 26.6 °F 16.2 °F 14.0 °F 59% 30.07 in 10.0 mi SE 11.5 mph - N/A   Overcast
12:15 PM 26.6 °F 16.8 °F 14.0 °F 59% 30.06 in 10.0 mi SE 10.4 mph - N/A   Overcast
12:55 PM 26.6 °F 15.2 °F 8.6 °F 47% 30.05 in 10.0 mi SE 13.8 mph - N/A   Overcast
1:15 PM 28.4 °F 17.5 °F 10.4 °F 47% 30.06 in 10.0 mi SSE 13.8 mph - N/A   Overcast
1:35 PM 28.4 °F 18.0 °F 12.2 °F 51% 30.06 in 10.0 mi SE 12.7 mph - N/A   Overcast
1:55 PM 28.4 °F 17.5 °F 14.0 °F 55% 30.05 in 10.0 mi SE 13.8 mph - N/A   Mostly Cloudy
2:15 PM 30.2 °F 20.2 °F 15.8 °F 55% 30.05 in 10.0 mi SSE 12.7 mph - N/A   Mostly Cloudy
2:35 PM 30.2 °F 20.8 °F 15.8 °F 55% 30.05 in 10.0 mi SSE 11.5 mph - N/A   Overcast
2:55 PM 30.2 °F 18.5 °F 14.0 °F 51% 30.04 in 10.0 mi SE 17.3 mph - N/A   Overcast
3:15 PM 30.2 °F 20.2 °F 14.0 °F 51% 30.03 in 10.0 mi SE 12.7 mph - N/A   Overcast
3:35 PM 28.4 °F 16.2 °F 14.0 °F 55% 30.03 in 10.0 mi SE 17.3 mph - N/A   Overcast
3:55 PM 28.4 °F 17.0 °F 15.8 °F 59% 30.02 in 10.0 mi SE 15.0 mph - N/A   Mostly Cloudy
4:15 PM 28.4 °F 18.0 °F 15.8 °F 59% 30.01 in 10.0 mi ESE 12.7 mph - N/A   Mostly Cloudy
4:35 PM 30.2 °F 20.8 °F 17.6 °F 60% 30.01 in 10.0 mi ESE 11.5 mph - N/A   Mostly Cloudy
4:55 PM 28.4 °F 15.8 °F 17.6 °F 64% 30.01 in 10.0 mi ESE 18.4 mph 21.9 mph N/A   Scattered Clouds
5:15 PM 28.4 °F 17.0 °F 21.2 °F 74% 30.00 in 7.0 mi ESE 15.0 mph - N/A   Partly Cloudy
5:35 PM 26.6 °F 15.2 °F 23.0 °F 86% 30.00 in 5.0 mi ESE 13.8 mph - N/A   Clear
5:55 PM 26.6 °F 15.2 °F 24.8 °F 93% 30.00 in 2.5 mi ESE 13.8 mph - N/A Snow Light Snow
6:15 PM 26.6 °F 15.2 °F 24.8 °F 93% 30.00 in 2.0 mi East 13.8 mph - 0.01 in Snow Light Snow
6:35 PM 26.6 °F 15.7 °F 24.8 °F 93% 30.00 in 1.5 mi ESE 12.7 mph - 0.03 in Snow Light Snow
6:55 PM 24.8 °F 12.9 °F 24.8 °F 100% 30.00 in 1.8 mi ESE 13.8 mph 19.6 mph 0.06 in Snow Light Snow
7:15 PM 24.8 °F 13.4 °F 23.0 °F 93% 30.01 in 1.2 mi ESE 12.7 mph - 0.02 in Snow Light Snow
7:35 PM 24.8 °F 14.6 °F 23.0 °F 93% 30.00 in 1.0 mi East 10.4 mph - 0.07 in Snow Light Snow
7:55 PM 24.8 °F 15.3 °F 23.0 °F 93% 30.01 in 1.5 mi ESE 9.2 mph - 0.12 in Snow Light Snow
8:15 PM 24.8 °F 14.6 °F 23.0 °F 93% 30.01 in 1.0 mi East 10.4 mph - 0.03 in Snow Light Snow
8:35 PM 24.8 °F 14.6 °F 23.0 °F 93% 30.02 in 1.8 mi East 10.4 mph - 0.06 in Snow Light Snow
8:55 PM 24.8 °F 14.6 °F 23.0 °F 93% 30.02 in 1.8 mi East 10.4 mph - 0.10 in Snow Light Snow
9:15 PM 24.8 °F 14.0 °F 23.0 °F 93% 30.02 in 1.5 mi East 11.5 mph - 0.04 in Snow Light Snow
9:35 PM 24.8 °F 14.0 °F 23.0 °F 93% 30.02 in 1.5 mi East 11.5 mph - 0.10 in Snow Light Snow
9:55 PM 24.8 °F 14.0 °F 23.0 °F 93% 30.02 in 1.8 mi East 11.5 mph - 0.15 in Snow Light Snow
10:15 PM 24.8 °F 14.0 °F 23.0 °F 93% 30.02 in 1.8 mi East 11.5 mph - 0.03 in Snow Light Snow
10:35 PM 24.8 °F 14.6 °F 23.0 °F 93% 30.01 in 1.2 mi East 10.4 mph - 0.10 in Snow Light Snow
10:55 PM 24.8 °F 14.0 °F 23.0 °F 93% 30.01 in 1.2 mi East 11.5 mph - 0.18 in Snow Light Snow
11:15 PM 24.8 °F 14.0 °F 23.0 °F 93% 30.01 in 1.2 mi East 11.5 mph - 0.04 in Snow Light Snow
11:35 PM 24.8 °F 14.0 °F 23.0 °F 93% 30.01 in 2.0 mi East 11.5 mph - 0.09 in Snow Light Snow
11:55 PM 24.8 °F 13.4 °F 23.0 °F 93% 30.00 in 2.5 mi East 12.7 mph - 0.14 in Snow Light Snow